When you browse on this site, cookies collect data to enhance your experience and personalize the content and advertising you see.
Visit our Privacy Policy to learn more. By continuing to use the site, you agree to this use of cookies and data.
  • In United Kingdom
  • List of Countries
  • For 7 days
  • Water Temperature
  • Weather Map
  • Weather Widgets
  • user-avatar
    Login

    Hourly Weather Edinburgh

    Today, 24 February, Monday

    Time Temperature Precipitation Wind Pressure Humidity
    00:00 +3°C° 0 mm 2 mps 761 mmHg 93%
    01:00 +3°C° 0.2 mm 2 mps 759 mmHg 94%
    02:00 +3°C° 0.2 mm 2 mps 758 mmHg 94%
    03:00 +3°C° 0.2 mm 2 mps 757 mmHg 95%
    04:00 +1°C° 1 mm 3 mps 755 mmHg 95%
    05:00 0°C° 1 mm 4 mps 753 mmHg 96%
    06:00 -1°C° 1 mm 6 mps 751 mmHg 96%
    07:00 -1°C° 2.1 mm 6 mps 749 mmHg 97%
    08:00 -2°C° 2.1 mm 7 mps 748 mmHg 97%
    09:00 -2°C° 2.1 mm 7 mps 746 mmHg 97%
    10:00 -2°C° 1.1 mm 6 mps 745 mmHg 98%
    11:00 -2°C° 1.1 mm 6 mps 744 mmHg 98%
    12:00 -1°C° 1.1 mm 5 mps 743 mmHg 98%
    13:00 0°C° 0.2 mm 4 mps 743 mmHg 98%
    14:00 0°C° 0.2 mm 4 mps 743 mmHg 98%
    15:00 +1°C° 0.2 mm 3 mps 743 mmHg 99%
    16:00 0°C° 0.1 mm 4 mps 744 mmHg 98%
    17:00 0°C° 0.1 mm 4 mps 744 mmHg 98%
    18:00 0°C° 0.1 mm 4 mps 745 mmHg 97%
    19:00 0°C° 0 mm 4 mps 745 mmHg 96%
    20:00 -1°C° 0 mm 4 mps 746 mmHg 94%
    21:00 0°C° 0 mm 3 mps 746 mmHg 93%
    22:00 0°C° 0.3 mm 3 mps 746 mmHg 94%
    23:00 0°C° 0.3 mm 3 mps 746 mmHg 96%

    Tomorrow, 25 February, Tuesday

    Time Temperature Precipitation Wind Pressure Humidity
    00:00 0°C° 0.3 mm 3 mps 746 mmHg 97%
    01:00 0°C° 0.6 mm 3 mps 745 mmHg 97%
    02:00 +1°C° 0.6 mm 3 mps 745 mmHg 97%
    03:00 +1°C° 0.6 mm 3 mps 744 mmHg 97%
    04:00 +1°C° 0.1 mm 3 mps 744 mmHg 95%
    05:00 0°C° 0.1 mm 3 mps 743 mmHg 94%
    06:00 0°C° 0.1 mm 3 mps 743 mmHg 92%
    07:00 +1°C° 0.1 mm 3 mps 743 mmHg 92%
    08:00 +1°C° 0.1 mm 3 mps 743 mmHg 91%
    09:00 +1°C° 0.1 mm 3 mps 743 mmHg 90%
    10:00 +2°C° 0.2 mm 3 mps 742 mmHg 90%
    11:00 +1°C° 0.2 mm 4 mps 742 mmHg 90%
    12:00 +3°C° 0.2 mm 4 mps 742 mmHg 89%
    13:00 +3°C° 0.4 mm 4 mps 742 mmHg 88%
    14:00 +3°C° 0.4 mm 4 mps 741 mmHg 88%
    15:00 +3°C° 0.4 mm 4 mps 741 mmHg 87%
    16:00 +1°C° 0.2 mm 4 mps 740 mmHg 87%
    17:00 +1°C° 0.2 mm 3 mps 740 mmHg 87%
    18:00 0°C° 0.2 mm 3 mps 740 mmHg 87%
    19:00 0°C° 0.1 mm 3 mps 740 mmHg 88%
    20:00 +1°C° 0.1 mm 2 mps 740 mmHg 88%
    21:00 +1°C° 0.1 mm 2 mps 740 mmHg 88%
    22:00 -1°C° 0 mm 2 mps 741 mmHg 89%
    23:00 -1°C° 0 mm 2 mps 741 mmHg 89%

    Day after tomorrow, 26 February, Wednesday

    Time Temperature Precipitation Wind Pressure Humidity
    00:00 -1°C° 0 mm 2 mps 741 mmHg 89%
    01:00 -1°C° 0 mm 2 mps 742 mmHg 88%
    02:00 -1°C° 0 mm 2 mps 743 mmHg 88%
    03:00 -1°C° 0 mm 2 mps 743 mmHg 88%
    04:00 -1°C° 0 mm 3 mps 744 mmHg 87%
    05:00 -1°C° 0 mm 3 mps 745 mmHg 86%
    06:00 -1°C° 0 mm 3 mps 745 mmHg 86%
    07:00 0°C° 0 mm 3 mps 746 mmHg 86%
    08:00 0°C° 0 mm 3 mps 747 mmHg 86%
    09:00 0°C° 0 mm 4 mps 748 mmHg 86%
    10:00 0°C° 0.1 mm 4 mps 748 mmHg 82%
    11:00 +1°C° 0.1 mm 5 mps 749 mmHg 79%
    12:00 +2°C° 0.1 mm 5 mps 749 mmHg 76%
    13:00 +1°C° 0.1 mm 5 mps 749 mmHg 77%
    14:00 +1°C° 0.1 mm 5 mps 749 mmHg 79%
    15:00 +1°C° 0.1 mm 5 mps 749 mmHg 80%
    16:00 +1°C° 0.3 mm 5 mps 749 mmHg 85%
    17:00 0°C° 0.3 mm 4 mps 749 mmHg 90%
    18:00 0°C° 0.3 mm 4 mps 748 mmHg 95%
    19:00 0°C° 0.1 mm 4 mps 748 mmHg 94%
    20:00 0°C° 0.1 mm 3 mps 748 mmHg 93%
    21:00 0°C° 0.1 mm 3 mps 748 mmHg 92%
    22:00 0°C° 0 mm 3 mps 748 mmHg 92%
    23:00 0°C° 0 mm 3 mps 748 mmHg 92%

    27 February, Thursday

    Time Temperature Precipitation Wind Pressure Humidity
    00:00 -1°C° 0 mm 3 mps 748 mmHg 91%
    01:00 -1°C° 0.1 mm 3 mps 747 mmHg 93%
    02:00 0°C° 0.1 mm 3 mps 747 mmHg 94%
    03:00 +1°C° 0.1 mm 2 mps 747 mmHg 96%
    04:00 +1°C° 0.1 mm 2 mps 746 mmHg 95%
    05:00 +1°C° 0.1 mm 2 mps 746 mmHg 95%
    06:00 -1°C° 0.1 mm 2 mps 746 mmHg 95%
    07:00 +1°C° 0 mm 2 mps 746 mmHg 93%
    08:00 +1°C° 0 mm 2 mps 746 mmHg 91%
    09:00 +3°C° 0 mm 1 mps 745 mmHg 90%
    10:00 +2°C° 0.1 mm 2 mps 745 mmHg 87%
    11:00 +2°C° 0.1 mm 3 mps 745 mmHg 83%
    12:00 +3°C° 0.1 mm 3 mps 745 mmHg 80%
    13:00 +3°C° 0.2 mm 3 mps 745 mmHg 80%
    14:00 +3°C° 0.2 mm 3 mps 745 mmHg 80%
    15:00 +3°C° 0.2 mm 4 mps 744 mmHg 80%
    16:00 +2°C° 0.1 mm 3 mps 745 mmHg 82%
    17:00 +2°C° 0.1 mm 2 mps 745 mmHg 84%
    18:00 +1°C° 0.1 mm 2 mps 745 mmHg 86%
    19:00 +1°C° 0 mm 2 mps 745 mmHg 87%
    20:00 +2°C° 0 mm 1 mps 745 mmHg 88%
    21:00 +1°C° 0 mm 1 mps 745 mmHg 88%
    22:00 +1°C° 0 mm 1 mps 745 mmHg 89%
    23:00 +1°C° 0 mm 1 mps 745 mmHg 90%

    28 February, Friday

    Time Temperature Precipitation Wind Pressure Humidity
    00:00 +1°C° 0 mm 1 mps 745 mmHg 91%
    01:00 +2°C° 0.5 mm 1 mps 744 mmHg 93%
    02:00 +2°C° 0.5 mm 1 mps 744 mmHg 95%
    03:00 +1°C° 0.5 mm 2 mps 744 mmHg 97%
    04:00 +2°C° 1.3 mm 1 mps 743 mmHg 98%
    05:00 +2°C° 1.3 mm 1 mps 743 mmHg 98%
    06:00 +2°C° 1.3 mm 1 mps 743 mmHg 99%
    07:00 +2°C° 0.3 mm 1 mps 743 mmHg 99%
    08:00 +2°C° 0.3 mm 1 mps 743 mmHg 99%
    09:00 +3°C° 0.3 mm 1 mps 743 mmHg 99%
    10:00 +3°C° 0.3 mm 1 mps 743 mmHg 98%
    11:00 +3°C° 0.3 mm 1 mps 743 mmHg 98%
    12:00 +3°C° 0.3 mm 1 mps 743 mmHg 98%
    13:00 +4°C° 0.2 mm 1 mps 743 mmHg 96%
    14:00 +4°C° 0.2 mm 1 mps 743 mmHg 93%
    15:00 +4°C° 0.2 mm 1 mps 742 mmHg 91%
    16:00 +3°C° 0.1 mm 1 mps 742 mmHg 91%
    17:00 +2°C° 0.1 mm 1 mps 742 mmHg 91%
    18:00 0°C° 0.1 mm 0 mps 742 mmHg 92%
    19:00 +1°C° 0 mm 1 mps 741 mmHg 92%
    20:00 +1°C° 0 mm 1 mps 741 mmHg 93%
    21:00 -2°C° 0 mm 2 mps 741 mmHg 94%
    22:00 -2°C° 0 mm 2 mps 740 mmHg 94%
    23:00 -2°C° 0 mm 3 mps 740 mmHg 95%

    29 February, Saturday

    Time Temperature Precipitation Wind Pressure Humidity
    00:00 -2°C° 0 mm 3 mps 739 mmHg 95%
    01:00 -1°C° 0 mm 3 mps 739 mmHg 94%
    02:00 -1°C° 0 mm 3 mps 739 mmHg 94%
    03:00 -1°C° 0 mm 3 mps 739 mmHg 94%
    04:00 -1°C° 0 mm 3 mps 739 mmHg 94%
    05:00 0°C° 0 mm 3 mps 740 mmHg 94%
    06:00 -1°C° 0 mm 4 mps 740 mmHg 95%
    07:00 -1°C° 0.4 mm 4 mps 741 mmHg 95%
    08:00 -1°C° 0.4 mm 4 mps 742 mmHg 96%
    09:00 -1°C° 0.4 mm 5 mps 743 mmHg 97%
    10:00 -1°C° 0.4 mm 5 mps 743 mmHg 92%
    11:00 -1°C° 0.4 mm 6 mps 744 mmHg 88%
    12:00 -1°C° 0.4 mm 6 mps 745 mmHg 83%
    13:00 -1°C° 0 mm 6 mps 746 mmHg 83%
    14:00 0°C° 0 mm 5 mps 747 mmHg 82%
    15:00 0°C° 0 mm 4 mps 747 mmHg 81%
    16:00 -1°C° 0 mm 4 mps 748 mmHg 82%
    17:00 -1°C° 0 mm 3 mps 749 mmHg 82%
    18:00 -2°C° 0 mm 3 mps 750 mmHg 83%
    19:00 -4°C° 0 mm 3 mps 751 mmHg 83%
    20:00 -5°C° 0 mm 3 mps 752 mmHg 83%
    21:00 -4°C° 0 mm 2 mps 753 mmHg 83%
    22:00 -5°C° 0 mm 2 mps 753 mmHg 83%
    23:00 -5°C° 0 mm 2 mps 754 mmHg 84%
    Show more